User: anonymous   Login
Location: Unspecified
(0.0000°N, 0.0000°E)
Time: 02:57:27
(UTC+00:00)
Language:

Optus B1 - Orbit

View from above orbital plane
View from above orbital plane
View from above satellite
View from above satellite

Ground track
Ground track

The orbit data is extracted from the following two-line orbital elements,

1 22087U 92054A   14298.67201205 -.00000282  00000-0  00000+0 0    67
2 22087 007.1319 054.3497 0008179 051.1544 300.1396 00.99206756 92512
Epoch (UTC): 25 October 2014 16:07:41
Eccentricity: 0.0008179
inclination: 7.1319°
perigee height: 36053 km
apogee height: 36122 km
right ascension of ascending node: 54.3497°
argument of perigee: 51.1544°
revolutions per day: 0.99206756
mean anomaly at epoch: 300.1396°
orbit number at epoch: 9251

The dashed part of the orbit path shows where the satellite is in the earth's shadow,  

DLR